Theta_e
321 324 327 330 333 334 334 335 336 339 339 339 338 338 337 335 333 333 332 331 332 332 331 330 326 325 323 326 325 327 326 324 324 320 316 314 315 313 313 315 318 319 319
323 325 325 327 331 334 335 336 337 338 339 338 335 331 326 319 314 312 313 313 313 313 313 312 313 313 316 317 316 317 321 321 321 319 314 314 312 310 312 312 314 316 317
324 325 323 326 327 329 330 335 335 331 326 319 315 314 311 312 312 311 312 312 313 313 313 313 312 310 313 314 314 314 315 315 317 318 318 314 314 312 311 311 312 313 315
322 322 319 318 319 318 318 317 315 314 313 311 310 309 310 313 311 311 311 311 310 310 309 306 304 303 303 308 310 310 314 314 315 316 316 317 315 316 312 309 310 312 313
321 319 317 315 314 315 316 314 313 312 311 309 308 308 309 309 307 305 304 303 302 302 302 301 301 301 300 302 306 308 310 313 314 313 315 315 315 313 311 316 310 310 311
319 318 315 313 311 311 314 313 310 309 309 308 308 306 305 303 301 301 301 301 302 302 301 302 301 301 302 304 305 307 309 310 311 313 313 313 313 312 311 311 312 310 310
319 317 315 313 311 310 310 309 308 306 305 303 302 301 301 301 301 302 303 304 304 303 303 301 300 301 302 303 304 306 307 309 310 312 313 312 312 311 311 311 312 311 310
317 315 314 312 310 309 309 306 305 304 302 301 300 300 300 301 301 302 302 303 302 302 302 301 301 301 302 303 304 305 306 308 310 311 311 310 309 309 309 309 311 310 311
314 314 312 310 309 308 307 304 304 303 301 299 299 300 300 300 301 301 301 302 301 301 300 300 300 300 300 301 303 304 305 306 308 308 307 308 308 308 307 307 308 310 310
312 312 310 309 308 307 303 302 302 301 299 298 299 299 300 301 301 301 301 300 300 300 299 299 299 300 301 301 302 302 302 302 303 303 304 305 306 306 306 305 306 307 309
310 310 308 306 306 303 302 302 301 299 298 299 300 300 301 300 299 300 299 299 298 298 297 297 297 298 299 301 301 301 300 300 300 301 301 302 304 304 304 304 305 306 308
309 309 306 304 303 302 301 301 299 299 299 299 300 301 300 299 298 298 297 296 295 295 295 295 295 296 296 296 298 298 298 299 299 300 300 301 301 302 303 303 304 305 306
307 306 304 304 302 300 300 300 298 299 298 300 301 300 298 298 297 296 296 295 295 294 294 294 295 294 294 295 295 296 297 297 297 297 296 296 297 298 298 298 300 305 306
306 303 304 304 301 300 299 298 299 298 299 301 299 298 297 296 295 295 294 293 292 292 292 292 292 292 292 292 292 292 293 293 293 293 293 294 294 295 296 298 298 299 302
303 303 303 302 300 299 299 299 298 298 300 299 297 296 295 294 293 292 291 290 290 290 291 291 291 290 289 290 289 289 289 290 291 291 291 292 293 294 295 296 298 299 300
302 302 302 301 299 299 299 298 298 300 299 297 296 294 293 292 291 290 290 290 289 289 290 289 288 289 289 288 288 288 289 290 290 291 291 292 293 294 295 295 295 298 300
301 301 301 300 299 299 298 298 300 299 297 296 294 292 291 290 290 289 289 289 289 289 289 288 288 288 288 288 288 288 289 289 290 290 291 291 292 294 295 297 297 297 298
301 301 301 299 299 298 298 299 299 297 295 294 293 292 291 289 288 288 288 288 288 288 288 287 287 288 288 287 288 288 289 290 290 290 291 290 293 296 296 298 299 297 298
301 301 300 299 298 298 299 299 296 294 294 293 292 291 290 289 288 288 288 288 288 288 287 287 287 287 287 287 287 288 290 290 290 290 290 292 294 296 301 301 300 298 299
300 300 298 297 297 298 298 296 295 294 293 291 290 290 289 289 288 288 288 288 288 288 288 288 287 287 287 287 288 288 288 290 290 290 290 292 292 293 294 294 295 292 291
300 297 297 298 298 297 296 295 293 292 291 289 289 289 288 288 287 288 288 288 288 288 288 288 288 287 287 287 286 287 287 288 288 288 288 290 292 292 292 291 290 289 289
299 297 297 297 296 296 295 293 292 290 289 289 289 288 288 288 287 288 288 289 288 288 288 288 288 288 287 286 286 286 288 288 286 285 286 287 291 291 290 290 291 292 291
297 296 298 295 293 293 294 291 290 290 288 289 289 288 287 287 287 288 289 288 288 289 289 289 289 288 287 287 287 287 286 286 285 285 286 288 288 289 289 290 290 289 289
298 297 296 294 290 291 291 291 290 289 288 288 288 288 287 287 288 289 288 288 288 289 289 288 289 287 286 286 287 287 287 287 286 287 287 287 287 288 289 290 289 289 288
297 297 296 294 291 291 291 290 289 287 287 288 288 288 288 288 288 288 287 288 287 287 288 287 286 287 286 285 285 286 286 286 285 286 286 286 286 286 285 285 285 285 285
297 296 295 294 291 291 290 289 288 287 288 288 288 289 288 288 288 288 287 287 287 287 287 286 286 285 285 285 285 285 286 287 285 285 285 285 285 285 285 285 285 285 285
Wind_Speed
2 2 3 4 8 12 14 16 19 19 22 22 19 19 15 10 9 7 4 1 1 3 5 7 10 11 13 15 19 23 24 24 26 19 17 25 26 30 32 27 30 33 34
7 5 7 8 10 15 18 20 21 23 24 23 18 18 16 14 14 10 8 7 5 2 2 5 7 9 10 12 13 13 14 15 17 10 4 3 7 23 33 37 37 38 35
13 10 11 13 15 17 20 25 25 25 23 22 22 20 16 13 10 7 4 1 3 5 8 11 13 17 16 16 17 18 18 18 13 17 11 3 5 3 14 32 35 35 38
13 13 14 15 16 18 23 25 26 26 23 19 16 13 11 6 3 1 2 5 9 12 15 18 22 24 25 22 23 23 24 22 21 16 27 29 19 7 3 12 30 39 42
18 16 13 16 15 19 21 23 23 21 19 17 14 12 11 8 4 3 6 10 13 15 18 20 23 26 28 29 27 27 27 27 27 25 21 20 25 24 9 9 7 29 37
18 17 19 18 16 15 20 22 21 19 17 16 14 11 7 3 2 5 9 12 15 18 21 23 25 26 25 25 25 25 27 29 30 29 27 25 15 14 12 9 10 9 22
20 19 18 18 20 19 20 20 20 18 17 14 10 6 2 1 4 6 10 11 14 17 21 25 28 28 28 26 25 25 27 29 30 31 29 27 27 27 26 21 17 9 13
19 19 18 20 21 21 20 20 19 18 14 10 6 2 1 3 6 9 12 14 17 19 21 24 25 26 26 26 26 26 27 28 30 31 31 27 29 28 30 28 22 12 11
21 21 18 22 23 20 20 21 18 16 11 6 2 2 3 7 11 14 18 17 19 20 22 22 23 22 23 25 26 28 29 28 27 29 31 34 35 33 31 32 33 25 13
21 20 18 23 22 20 21 19 17 13 8 5 2 4 7 10 14 17 18 19 20 21 22 22 22 23 24 24 24 27 29 30 31 30 31 33 35 34 32 33 36 35 29
20 19 17 21 20 19 19 18 14 11 7 3 2 6 9 13 17 17 18 18 20 21 22 22 26 26 28 27 26 26 29 30 32 33 34 37 34 37 34 35 38 38 35
21 20 16 20 20 19 18 16 13 9 5 2 4 8 13 16 17 18 19 18 19 22 22 23 25 25 28 32 29 31 31 32 33 34 34 35 33 34 30 35 38 37 38
21 19 16 14 19 19 16 13 10 7 4 3 7 11 15 15 15 16 16 19 21 22 22 23 24 27 27 28 30 29 27 29 28 30 35 37 35 37 37 38 38 30 42
19 17 15 15 19 17 15 12 8 6 4 4 8 11 13 14 14 16 17 18 19 21 22 24 25 25 25 24 26 26 26 26 27 30 33 35 37 38 38 36 37 36 36
19 17 16 13 17 16 13 10 7 6 4 6 9 11 13 13 14 15 17 18 19 19 23 24 22 21 21 22 23 25 25 27 30 33 35 37 39 43 44 38 35 34 33
18 16 15 15 16 16 13 11 8 6 5 6 10 11 11 12 14 15 16 17 20 20 20 20 18 21 22 24 24 26 28 31 31 32 34 35 39 41 45 49 48 39 34
18 16 15 14 16 16 15 11 8 6 4 7 9 9 10 15 15 15 16 17 19 18 17 18 19 22 23 25 24 29 29 29 29 31 31 33 33 37 38 42 49 52 50
18 16 14 16 16 13 13 11 8 4 5 5 5 8 9 13 15 16 18 18 18 16 18 20 20 22 24 26 25 28 28 28 28 26 28 29 34 36 34 34 36 45 43
18 18 23 20 16 16 14 12 7 4 3 3 6 8 10 14 15 17 17 17 16 15 16 16 18 19 22 23 25 24 23 23 24 22 24 25 18 24 24 4 12 26 26
23 24 24 20 19 17 17 12 8 4 1 5 7 8 9 10 13 15 15 13 13 13 15 15 15 16 18 20 22 23 18 20 22 23 25 21 20 19 18 22 32 27 29
21 23 25 21 22 21 16 10 6 1 2 4 7 7 8 9 10 12 11 11 12 13 12 12 12 14 14 17 22 23 19 19 18 20 23 24 17 20 22 27 26 29 36
21 25 20 20 21 20 15 9 5 2 1 2 5 6 7 8 9 9 9 9 10 9 9 10 12 10 15 17 19 20 21 19 15 18 21 24 24 24 28 34 36 38 37
21 22 21 21 18 15 12 10 6 3 1 2 3 4 5 6 6 6 9 7 7 6 7 9 10 11 17 18 19 18 19 20 16 18 20 22 26 28 29 30 32 31 29
16 21 21 17 14 13 10 7 6 4 1 2 1 3 4 5 5 6 6 5 6 4 6 8 7 11 18 19 19 19 19 18 17 20 22 23 25 26 26 25 26 27 24
20 21 19 17 15 13 11 9 5 4 2 1 1 3 3 3 5 5 5 2 5 5 5 2 7 12 15 18 18 19 17 16 17 18 23 24 22 22 22 24 23 24 25
20 17 16 18 17 13 11 9 6 5 4 2 1 2 3 3 3 2 4 10 10 10 8 7 14 16 14 15 17 18 18 18 21 20 20 20 20 20 18 18 18 19 20
Wind_Direction
187 127 120 142 136 136 147 165 167 175 173 162 158 157 152 146 134 129 115 83 300 297 294 285 292 297 292 292 291 287 283 273 270 261 267 253 254 239 243 233 235 223 219
179 155 144 159 161 146 145 154 157 163 164 156 150 141 137 126 113 100 93 93 92 51 309 300 304 305 303 299 294 288 280 276 271 245 248 288 264 245 237 237 231 227 221
177 159 150 143 143 142 141 143 142 138 136 136 132 126 114 108 98 89 94 115 271 276 286 295 298 297 294 287 284 278 270 270 264 248 229 242 235 190 221 230 230 227 221
173 163 151 140 134 129 131 129 127 125 125 127 119 112 106 105 91 74 318 304 299 296 297 298 298 298 297 289 282 278 268 263 257 247 231 237 252 253 270 230 224 223 220
175 166 156 145 137 137 132 129 125 122 123 121 119 118 115 120 141 263 288 292 291 293 295 301 304 301 297 292 286 278 266 258 255 252 249 237 237 239 238 262 228 222 222
172 166 162 154 146 147 141 136 128 123 125 123 118 117 124 151 248 292 300 304 304 302 300 303 302 299 291 287 285 281 273 266 262 258 252 248 241 236 238 251 258 245 226
174 170 169 164 154 154 148 141 134 128 130 125 121 123 141 266 303 310 307 301 300 300 300 304 304 303 299 292 288 284 279 271 264 254 246 244 247 253 251 243 255 248 235
176 174 169 164 161 159 156 145 140 137 136 130 132 147 320 327 314 309 307 303 300 298 300 304 303 299 294 290 288 283 277 270 265 257 253 251 254 255 256 256 252 253 237
176 173 169 168 165 165 160 152 145 142 141 136 157 240 301 314 314 311 307 304 302 303 303 297 294 290 290 288 285 281 276 272 265 266 265 262 258 255 254 255 254 246 245
173 173 172 171 169 162 159 156 150 147 148 157 214 306 321 315 310 306 302 305 305 304 302 301 298 295 293 287 280 277 275 275 276 273 268 264 262 258 252 253 255 248 239
173 170 170 170 165 160 160 157 155 155 159 181 288 311 314 313 312 310 309 309 307 309 307 303 300 295 291 288 283 279 278 273 270 268 266 266 262 259 257 253 253 252 240
171 169 166 164 162 167 165 166 165 162 177 238 299 312 316 316 316 315 310 308 307 309 307 303 301 298 296 294 287 284 278 275 272 270 268 265 265 264 260 253 242 250 244
168 169 168 166 168 171 170 168 172 178 207 268 312 317 315 313 309 307 309 312 310 308 310 309 303 298 294 292 290 284 286 285 281 278 276 273 268 264 261 257 261 250 240
169 169 169 171 171 171 172 169 176 199 226 283 308 308 309 313 310 314 315 311 310 308 308 305 302 300 301 300 298 296 294 289 285 283 280 276 269 264 259 252 245 252 252
174 177 170 170 168 169 169 174 182 195 229 287 303 307 313 315 319 317 312 309 313 312 314 313 308 310 311 310 307 305 301 297 294 289 283 277 270 266 258 252 245 235 242
175 173 167 166 170 172 174 177 179 188 245 286 305 312 322 319 310 312 317 320 320 320 317 318 324 322 322 319 325 321 315 306 294 287 287 285 281 273 263 253 244 235 229
169 166 172 171 174 177 176 171 172 203 266 294 305 321 304 320 323 322 325 326 324 322 326 332 333 330 330 334 329 326 315 307 299 293 292 291 285 281 270 254 245 234 230
168 165 169 176 175 166 163 160 180 219 268 284 293 309 320 327 326 331 330 331 331 332 340 341 334 335 337 337 337 329 320 318 315 315 313 303 298 298 284 256 236 219 217
168 158 173 172 160 164 161 171 186 205 237 285 319 327 322 332 329 332 330 337 342 342 345 345 342 340 336 340 342 338 338 333 338 345 347 348 348 323 318 216 196 188 189
170 159 158 158 153 170 173 173 180 184 289 333 324 319 333 327 325 333 335 338 347 345 349 348 353 347 337 349 347 359 350 353 355 0 13 30 36 40 63 98 114 104 117
148 149 148 152 168 174 171 166 163 108 326 317 323 334 331 319 329 336 339 351 349 351 352 359 3 360 357 354 6 13 19 14 1 5 11 32 52 63 76 87 96 110 114
146 147 146 147 171 172 168 149 135 191 252 308 342 337 325 335 343 338 356 2 351 353 356 1 354 355 18 11 16 22 34 33 25 18 25 40 64 78 88 97 112 119 119
142 148 149 157 160 165 164 151 164 194 252 343 336 338 342 359 352 358 1 349 358 0 2 10 354 4 23 19 27 28 37 42 37 43 48 68 78 81 80 95 102 103 107
142 161 153 152 155 157 148 145 166 194 220 248 321 358 2 7 23 36 2 345 20 19 33 12 353 21 32 21 19 25 29 38 45 53 58 62 69 76 81 88 93 96 100
151 155 159 157 152 154 156 165 158 153 184 190 37 22 16 19 28 60 11 48 54 62 56 357 58 54 42 28 27 31 31 36 52 54 53 45 43 50 55 63 75 86 91
150 147 145 142 147 149 158 168 168 158 137 138 77 12 18 15 38 113 94 73 80 68 85 94 92 79 67 54 48 49 53 63 63 55 50 48 48 51 54 64 71 77 87